Regional Weather Roundup
Issued by NWS

Home | Current Version | Previous Version | Graphics & Text | Print | Product List | Glossary On
Versions: 1 2 3 4 5 6 7 8 9 10 11 12 13 14 15 16 17 18 19 20 21 22 23 24 25 26 27 28 29 30 31 32 33 34 35 36 37 38 39 40 41 42 43 44 45 46 47 48 49 50
000
ASUS45 KBOI 190010
RWRID

IDAHO REGIONAL WEATHER ROUNDUP
NATIONAL WEATHER SERVICE BOISE ID
500 PM MST THU JAN 18 2018

NOTE: "FAIR" INDICATES FEW OR NO CLOUDS BELOW 12000 FEET
WITH NO SIGNIFICANT WEATHER AND/OR OBSTRUCTIONS TO VISIBILITY

IDZ012-014-190100-
SOUTHWEST IDAHO


CITY           SKY/WX    TMP DP  RH WIND       PRES   REMARKS
BOISE          CLOUDY    45  38  76 NW16      29.87R
CALDWELL       LGT RAIN  44  39  82 MISG      29.89R
MOUNTAIN HOME  CLOUDY    51  38  61 N12G18    29.80S
$$

IDZ016-017-190100-
SOUTHCENTRAL IDAHO


CITY           SKY/WX    TMP DP  RH WIND       PRES   REMARKS
BURLEY         CLOUDY    50  32  50 S18G28    29.86F
JEROME         CLOUDY    46  35  65 NE10      29.86F
TWIN FALLS     CLOUDY    52  35  52 S13       29.84F
$$

IDZ019>023-190100-
SOUTHEAST IDAHO


CITY           SKY/WX    TMP DP  RH WIND       PRES   REMARKS
IDAHO FALLS    CLOUDY    39  34  82 CALM      29.94F
POCATELLO      CLOUDY    51  31  46 VRB6      29.91F
REXBURG        CLOUDY    39  31  72 E6        29.95F WCI  35
$$

IDZ006-010-011-018-031-032-190100-
CENTRAL IDAHO MOUNTAINS


CITY           SKY/WX    TMP DP  RH WIND       PRES   REMARKS
MCCALL         LGT SNOW  34  32  92 E5        29.80F FOG     WCI  30
HAILEY         CLOUDY    39  32  75 CALM      29.91F
STANLEY          N/A     47  28  47 S15G37    29.80F
SALMON         CLOUDY    37  29  72 SW3       29.71F
CHALLIS        CLOUDY    36  28  73 N3        29.75F
$$

IDZ002-004-006-007-026-190100-
NORTHERN IDAHO


CITY           SKY/WX    TMP DP  RH WIND       PRES   REMARKS
LEWISTON       LGT RAIN  43  37  79 E6        29.85F
LOWELL           N/A     37  36  96 CALM      29.89S
COEUR D`ALENE  CLOUDY    38  35  89 S5        29.80S WCI  34
MULLAN PASS    SNOW      27  26  96 VRB3      29.72F VSB 1/2
$$



USA.gov is the U.S. government's official web portal to all federal, state and local government web resources and services.